| time (UTC) | temp C | wind direction | speed KPH | gust KPH | rain 1hr cm | rain 24hr cm | rain mn cm | humidity % | barometer mb |
| 20260507004543 | 9 | 160 | 11.3 | 24.1 | 0.00 | 0.00 | 0.00 | 70 | 1024.1 |
| 20260507004026 | 9 | 190 | 8.0 | 19.3 | 0.00 | 0.00 | 0.00 | 70 | 1024.1 |
| 20260507003528 | 9 | 157 | 9.7 | 20.9 | 0.00 | 0.00 | 0.00 | 70 | 1024.1 |
| 20260507003039 | 9 | 190 | 11.3 | 30.6 | 0.00 | 0.00 | 0.00 | 70 | 1024.1 |
| 20260507002528 | 9 | 177 | 16.1 | 30.6 | 0.00 | 0.00 | 0.00 | 70 | 1024.1 |
| 20260507002033 | 10 | 198 | 14.5 | 25.7 | 0.00 | 0.00 | 0.00 | 70 | 1024.0 |
| 20260507001537 | 10 | 209 | 16.1 | 25.7 | 0.00 | 0.00 | 0.00 | 69 | 1024.0 |
| 20260507001028 | 10 | 194 | 12.9 | 25.7 | 0.00 | 0.00 | 0.00 | 69 | 1023.9 |
| 20260507000525 | 10 | 193 | 12.9 | 25.7 | 0.00 | 0.00 | 0.00 | 69 | 1023.9 |
| 20260507000036 | 10 | 173 | 14.5 | 25.7 | 0.00 | 0.00 | 0.00 | 68 | 1023.9 |
| 20260506235527 | 10 | 196 | 9.7 | 24.1 | 0.00 | 0.00 | 0.00 | 68 | 1023.8 |
| 20260506235029 | 10 | 194 | 12.9 | 27.4 | 0.00 | 0.00 | 0.00 | 67 | 1023.9 |
| 20260506234541 | 10 | 184 | 8.0 | 27.4 | 0.00 | 0.00 | 0.00 | 66 | 1023.8 |
| 20260506234026 | 10 | 216 | 11.3 | 27.4 | 0.00 | 0.00 | 0.00 | 67 | 1023.8 |
| 20260506233528 | 10 | 190 | 11.3 | 24.1 | 0.00 | 0.00 | 0.00 | 67 | 1023.8 |
| 20260506233040 | 10 | 168 | 12.9 | 20.9 | 0.00 | 0.00 | 0.00 | 66 | 1023.7 |
| 20260506232526 | 11 | 166 | 11.3 | 19.3 | 0.00 | 0.00 | 0.00 | 66 | 1023.7 |
| 20260506232028 | 11 | 209 | 8.0 | 22.5 | 0.00 | 0.00 | 0.00 | 63 | 1023.6 |
| 20260506231551 | 11 | 146 | 8.0 | 22.5 | 0.00 | 0.00 | 0.00 | 65 | 1023.7 |
| 20260506231028 | 11 | 206 | 14.5 | 22.5 | 0.00 | 0.00 | 0.00 | 66 | 1023.6 |
| 20260506230526 | 11 | 164 | 11.3 | 20.9 | 0.00 | 0.00 | 0.00 | 64 | 1023.6 |
| 20260506230104 | 11 | 243 | 9.7 | 20.9 | 0.00 | 0.00 | 0.00 | 65 | 1023.6 |
| 20260506225526 | 11 | 171 | 11.3 | 19.3 | 0.00 | 0.00 | 0.00 | 66 | 1023.5 |
| 20260506225025 | 10 | 169 | 4.8 | 19.3 | 0.00 | 0.00 | 0.00 | 66 | 1023.5 |
| 20260506224543 | 10 | 191 | 8.0 | 17.7 | 0.00 | 0.00 | 0.00 | 66 | 1023.5 |
| 20260506224029 | 11 | 202 | 6.4 | 16.1 | 0.00 | 0.00 | 0.00 | 66 | 1023.5 |
| 20260506223528 | 11 | 184 | 6.4 | 16.1 | 0.00 | 0.00 | 0.00 | 65 | 1023.6 |
| 20260506223045 | 11 | 182 | 6.4 | 16.1 | 0.00 | 0.00 | 0.00 | 65 | 1023.5 |
| 20260506222528 | 11 | 219 | 8.0 | 16.1 | 0.00 | 0.00 | 0.00 | 64 | 1023.3 |
| 20260506222050 | 11 | 180 | 4.8 | 12.9 | 0.00 | 0.00 | 0.00 | 65 | 1023.3 |
| 20260506221558 | 11 | 163 | 3.2 | 11.3 | 0.00 | 0.00 | 0.00 | 63 | 1023.4 |
| 20260506221028 | 11 | 163 | 4.8 | 16.1 | 0.00 | 0.00 | 0.00 | 63 | 1023.4 |
| 20260506220526 | 11 | 180 | 6.4 | 20.9 | 0.00 | 0.00 | 0.00 | 63 | 1023.3 |
| 20260506220050 | 11 | 193 | 4.8 | 20.9 | 0.00 | 0.00 | 0.00 | 64 | 1023.2 |
| 20260506215531 | 11 | 207 | 4.8 | 19.3 | 0.00 | 0.00 | 0.00 | 63 | 1023.1 |
| 20260506215027 | 11 | 174 | 9.7 | 19.3 | 0.00 | 0.00 | 0.00 | 65 | 1023.3 |
| 20260506214540 | 11 | 160 | 9.7 | 20.9 | 0.00 | 0.00 | 0.00 | 64 | 1023.2 |
| 20260506214029 | 11 | 181 | 11.3 | 22.5 | 0.00 | 0.00 | 0.00 | 65 | 1023.1 |
| 20260506213525 | 11 | 178 | 12.9 | 22.5 | 0.00 | 0.00 | 0.00 | 66 | 1023.2 |
| 20260506213103 | 11 | 192 | 12.9 | 22.5 | 0.00 | 0.00 | 0.00 | 68 | 1023.2 |
| 20260506212528 | 10 | 184 | 11.3 | 22.5 | 0.00 | 0.00 | 0.00 | 67 | 1023.1 |
| 20260506212025 | 10 | 190 | 12.9 | 22.5 | 0.00 | 0.00 | 0.00 | 66 | 1023.1 |
| 20260506211544 | 10 | 198 | 9.7 | 22.5 | 0.00 | 0.00 | 0.00 | 67 | 1023.1 |
| 20260506211028 | 10 | 181 | 12.9 | 20.9 | 0.00 | 0.00 | 0.00 | 67 | 1023.0 |
| 20260506210527 | 10 | 188 | 6.4 | 17.7 | 0.00 | 0.00 | 0.00 | 67 | 1023.0 |
| 20260506210052 | 10 | 169 | 9.7 | 17.7 | 0.00 | 0.00 | 0.00 | 68 | 1023.0 |
| 20260506205529 | 10 | 162 | 9.7 | 16.1 | 0.00 | 0.00 | 0.00 | 68 | 1023.0 |
| 20260506205027 | 10 | 182 | 6.4 | 12.9 | 0.00 | 0.00 | 0.00 | 68 | 1023.0 |
| 20260506204541 | 10 | 175 | 6.4 | 14.5 | 0.00 | 0.00 | 0.00 | 67 | 1022.9 |
| 20260506204027 | 10 | 192 | 6.4 | 14.5 | 0.00 | 0.00 | 0.00 | 67 | 1022.9 |
| 20260506203526 | 10 | 195 | 9.7 | 16.1 | 0.00 | 0.00 | 0.00 | 67 | 1022.9 |
| 20260506203047 | 10 | 175 | 6.4 | 16.1 | 0.00 | 0.00 | 0.00 | 68 | 1023.0 |
| 20260506202528 | 10 | 163 | 8.0 | 17.7 | 0.00 | 0.00 | 0.00 | 68 | 1022.9 |
| 20260506202030 | 10 | 201 | 8.0 | 17.7 | 0.00 | 0.00 | 0.00 | 66 | 1022.9 |
| 20260506201542 | 10 | 184 | 9.7 | 17.7 | 0.00 | 0.00 | 0.00 | 66 | 1022.9 |
| 20260506201028 | 10 | 188 | 9.7 | 17.7 | 0.00 | 0.00 | 0.00 | 65 | 1022.9 |
| 20260506200527 | 10 | 171 | 8.0 | 19.3 | 0.00 | 0.00 | 0.00 | 66 | 1022.8 |
| 20260506200037 | 10 | 169 | 9.7 | 19.3 | 0.00 | 0.00 | 0.00 | 68 | 1022.7 |
| 20260506195528 | 10 | 184 | 8.0 | 12.9 | 0.00 | 0.00 | 0.00 | 68 | 1022.7 |
| 20260506195027 | 10 | 189 | 8.0 | 12.9 | 0.00 | 0.00 | 0.00 | 67 | 1022.8 |
| 20260506194540 | 10 | 202 | 6.4 | 16.1 | 0.00 | 0.00 | 0.00 | 68 | 1022.8 |
| 20260506194031 | 10 | 180 | 3.2 | 16.1 | 0.00 | 0.00 | 0.00 | 66 | 1022.7 |
| 20260506193525 | 10 | 196 | 8.0 | 20.9 | 0.00 | 0.00 | 0.00 | 67 | 1022.7 |
| 20260506193038 | 10 | 194 | 11.3 | 20.9 | 0.00 | 0.00 | 0.00 | 67 | 1022.7 |
| 20260506192527 | 11 | 177 | 9.7 | 19.3 | 0.00 | 0.00 | 0.00 | 68 | 1022.5 |
| 20260506192030 | 11 | 201 | 11.3 | 19.3 | 0.00 | 0.00 | 0.00 | 69 | 1022.5 |
| 20260506191538 | 11 | 157 | 9.7 | 19.3 | 0.00 | 0.00 | 0.00 | 68 | 1022.4 |
| 20260506191027 | 10 | 166 | 9.7 | 20.9 | 0.00 | 0.00 | 0.00 | 71 | 1022.3 |
| 20260506190528 | 10 | 158 | 11.3 | 20.9 | 0.00 | 0.00 | 0.00 | 72 | 1022.3 |
| 20260506190036 | 10 | 175 | 9.7 | 17.7 | 0.00 | 0.00 | 0.00 | 71 | 1022.2 |
| 20260506185528 | 10 | 181 | 9.7 | 16.1 | 0.00 | 0.00 | 0.00 | 72 | 1022.2 |
| 20260506185029 | 10 | 172 | 9.7 | 16.1 | 0.00 | 0.00 | 0.00 | 72 | 1022.3 |
| 20260506184556 | 10 | 180 | 8.0 | 16.1 | 0.00 | 0.00 | 0.00 | 72 | 1022.2 |
| 20260506184028 | 10 | 165 | 8.0 | 17.7 | 0.00 | 0.00 | 0.00 | 72 | 1022.2 |
| 20260506183528 | 10 | 190 | 9.7 | 17.7 | 0.00 | 0.00 | 0.00 | 71 | 1022.1 |
| 20260506183039 | 10 | 190 | 11.3 | 17.7 | 0.00 | 0.00 | 0.00 | 72 | 1022.2 |
| 20260506182527 | 10 | 176 | 9.7 | 19.3 | 0.00 | 0.00 | 0.00 | 73 | 1022.2 |
| 20260506182030 | 10 | 163 | 8.0 | 19.3 | 0.00 | 0.00 | 0.00 | 73 | 1022.2 |
| 20260506181540 | 9 | 152 | 9.7 | 19.3 | 0.00 | 0.00 | 0.00 | 73 | 1022.4 |
| 20260506181030 | 10 | 182 | 8.0 | 19.3 | 0.00 | 0.00 | 0.00 | 74 | 1022.4 |
| 20260506180527 | 9 | 192 | 9.7 | 20.9 | 0.00 | 0.00 | 0.00 | 74 | 1022.3 |
| 20260506180047 | 9 | 180 | 9.7 | 24.1 | 0.00 | 0.00 | 0.00 | 74 | 1022.3 |
| 20260506175527 | 10 | 205 | 11.3 | 24.1 | 0.00 | 0.00 | 0.00 | 73 | 1022.2 |
| 20260506175028 | 10 | 189 | 9.7 | 17.7 | 0.00 | 0.00 | 0.00 | 74 | 1022.3 |
| 20260506174543 | 10 | 219 | 4.8 | 19.3 | 0.00 | 0.00 | 0.00 | 75 | 1022.3 |
| 20260506174026 | 9 | 151 | 8.0 | 19.3 | 0.00 | 0.00 | 0.00 | 74 | 1022.3 |
| 20260506173525 | 9 | 170 | 9.7 | 17.7 | 0.00 | 0.00 | 0.00 | 75 | 1022.3 |
| 20260506173047 | 9 | 157 | 8.0 | 17.7 | 0.00 | 0.00 | 0.00 | 76 | 1022.3 |
| 20260506172528 | 10 | 187 | 6.4 | 14.5 | 0.00 | 0.00 | 0.00 | 75 | 1022.2 |
| 20260506172030 | 9 | 170 | 6.4 | 19.3 | 0.00 | 0.00 | 0.00 | 76 | 1022.2 |
| 20260506171554 | 8 | 174 | 4.8 | 19.3 | 0.00 | 0.00 | 0.00 | 78 | 1022.2 |
| 20260506171026 | 8 | 113 | 6.4 | 12.9 | 0.00 | 0.00 | 0.00 | 79 | 1022.4 |
| 20260506170530 | 8 | 139 | 4.8 | 11.3 | 0.00 | 0.00 | 0.00 | 81 | 1022.2 |
| 20260506170043 | 8 | 171 | 4.8 | 14.5 | 0.00 | 0.00 | 0.00 | 82 | 1022.3 |
| 20260506165530 | 8 | 192 | 4.8 | 14.5 | 0.00 | 0.00 | 0.00 | 82 | 1022.2 |
| 20260506165028 | 7 | 178 | 6.4 | 14.5 | 0.00 | 0.00 | 0.00 | 83 | 1022.3 |
| 20260506164539 | 7 | 186 | 6.4 | 11.3 | 0.00 | 0.00 | 0.00 | 84 | 1022.3 |
| 20260506164026 | 7 | 165 | 6.4 | 14.5 | 0.00 | 0.00 | 0.00 | 84 | 1022.3 |
| 20260506163527 | 7 | 165 | 4.8 | 14.5 | 0.00 | 0.00 | 0.00 | 85 | 1022.3 |
| 20260506163038 | 7 | 169 | 6.4 | 12.9 | 0.00 | 0.00 | 0.00 | 85 | 1022.3 |
| 20260506162530 | 6 | 185 | 4.8 | 9.7 | 0.00 | 0.00 | 0.00 | 86 | 1022.4 |
| 20260506162026 | 6 | 177 | 3.2 | 6.4 | 0.00 | 0.00 | 0.00 | 85 | 1022.4 |
| 20260506161546 | 6 | 167 | 1.6 | 6.4 | 0.00 | 0.00 | 0.00 | 85 | 1022.3 |
| 20260506161027 | 6 | 180 | 1.6 | 8.0 | 0.00 | 0.00 | 0.00 | 85 | 1022.2 |
| 20260506160531 | 6 | 179 | 3.2 | 11.3 | 0.00 | 0.00 | 0.00 | 84 | 1022.2 |
| 20260506160057 | 6 | 200 | 4.8 | 11.3 | 0.00 | 0.00 | 0.00 | 83 | 1022.2 |
| 20260506155526 | 7 | 196 | 3.2 | 9.7 | 0.00 | 0.00 | 0.00 | 83 | 1022.2 |
| 20260506155027 | 7 | 176 | 4.8 | 9.7 | 0.00 | 0.00 | 0.00 | 82 | 1022.2 |
| 20260506154542 | 7 | 171 | 3.2 | 8.0 | 0.00 | 0.00 | 0.00 | 82 | 1022.1 |
| 20260506154029 | 7 | 174 | 1.6 | 9.7 | 0.00 | 0.00 | 0.00 | 82 | 1022.0 |
| 20260506153528 | 7 | 0 | 3.2 | 9.7 | 0.00 | 0.00 | 0.00 | 82 | 1022.0 |
| 20260506153039 | 7 | 194 | 3.2 | 8.0 | 0.00 | 0.00 | 0.00 | 83 | 1021.9 |
| 20260506152527 | 7 | 188 | 3.2 | 8.0 | 0.00 | 0.00 | 0.00 | 83 | 1021.7 |
| 20260506152027 | 6 | 209 | 3.2 | 11.3 | 0.00 | 0.00 | 0.00 | 83 | 1021.7 |
| 20260506151545 | 6 | 185 | 3.2 | 11.3 | 0.00 | 0.00 | 0.00 | 83 | 1021.7 |
| 20260506151025 | 6 | 181 | 4.8 | 12.9 | 0.00 | 0.00 | 0.00 | 83 | 1021.6 |
| 20260506150525 | 6 | 192 | 4.8 | 12.9 | 0.00 | 0.00 | 0.00 | 83 | 1021.6 |
| 20260506150039 | 6 | 184 | 4.8 | 11.3 | 0.00 | 0.00 | 0.00 | 83 | 1021.5 |
| 20260506145526 | 6 | 214 | 6.4 | 12.9 | 0.00 | 0.00 | 0.00 | 84 | 1021.5 |
| 20260506145026 | 6 | 188 | 6.4 | 12.9 | 0.00 | 0.00 | 0.00 | 84 | 1021.5 |
| 20260506144557 | 6 | 186 | 6.4 | 12.9 | 0.00 | 0.00 | 0.00 | 84 | 1021.4 |
| 20260506144030 | 6 | 194 | 3.2 | 9.7 | 0.00 | 0.00 | 0.00 | 84 | 1021.5 |
| 20260506143531 | 6 | 213 | 1.6 | 6.4 | 0.00 | 0.00 | 0.00 | 84 | 1021.5 |
| 20260506143039 | 6 | 207 | 1.6 | 9.7 | 0.00 | 0.00 | 0.00 | 84 | 1021.5 |
| 20260506142528 | 6 | 182 | 4.8 | 9.7 | 0.00 | 0.00 | 0.00 | 85 | 1021.5 |
| 20260506142027 | 6 | 171 | 4.8 | 9.7 | 0.00 | 0.00 | 0.00 | 85 | 1021.5 |
| 20260506141540 | 6 | 180 | 4.8 | 11.3 | 0.00 | 0.00 | 0.00 | 85 | 1021.4 |
| 20260506141028 | 6 | 196 | 4.8 | 11.3 | 0.00 | 0.00 | 0.00 | 85 | 1021.4 |
| 20260506140526 | 6 | 191 | 4.8 | 11.3 | 0.00 | 0.00 | 0.00 | 85 | 1021.4 |
| 20260506140037 | 6 | 182 | 6.4 | 11.3 | 0.00 | 0.00 | 0.00 | 86 | 1021.4 |
| 20260506135530 | 6 | 175 | 6.4 | 11.3 | 0.00 | 0.00 | 0.00 | 85 | 1021.4 |
| 20260506135028 | 6 | 171 | 1.6 | 6.4 | 0.00 | 0.00 | 0.00 | 86 | 1021.5 |
| 20260506134538 | 6 | 198 | 3.2 | 6.4 | 0.00 | 0.00 | 0.00 | 86 | 1021.4 |
| 20260506134031 | 6 | 211 | 1.6 | 4.8 | 0.00 | 0.00 | 0.00 | 86 | 1021.3 |
| 20260506133526 | 5 | 0 | 0.0 | 1.6 | 0.00 | 0.00 | 0.00 | 85 | 1021.3 |
| 20260506133040 | 6 | 0 | 0.0 | 6.4 | 0.00 | 0.00 | 0.00 | 85 | 1021.3 |
| 20260506132532 | 6 | 0 | 0.0 | 11.3 | 0.00 | 0.00 | 0.00 | 85 | 1021.3 |
| 20260506132027 | 6 | 235 | 1.6 | 11.3 | 0.00 | 0.00 | 0.00 | 86 | 1021.2 |
| 20260506131543 | 5 | 175 | 1.6 | 8.0 | 0.00 | 0.00 | 0.00 | 86 | 1021.0 |
| 20260506131031 | 5 | 229 | 0.0 | 3.2 | 0.00 | 0.00 | 0.00 | 85 | 1021.0 |
| 20260506130528 | 5 | 249 | 0.0 | 3.2 | 0.00 | 0.00 | 0.00 | 85 | 1020.9 |
| 20260506130037 | 5 | 0 | 0.0 | 3.2 | 0.00 | 0.00 | 0.00 | 84 | 1020.9 |
| 20260506125527 | 5 | 0 | 0.0 | 3.2 | 0.00 | 0.00 | 0.00 | 84 | 1020.8 |
| 20260506125026 | 6 | 0 | 0.0 | 8.0 | 0.00 | 0.00 | 0.00 | 84 | 1020.8 |
| 20260506124537 | 6 | 335 | 1.6 | 9.7 | 0.00 | 0.00 | 0.00 | 84 | 1020.8 |
| 20260506124030 | 6 | 200 | 3.2 | 9.7 | 0.00 | 0.00 | 0.00 | 83 | 1020.9 |
| 20260506123526 | 6 | 206 | 3.2 | 9.7 | 0.00 | 0.00 | 0.00 | 83 | 1020.8 |
| 20260506123036 | 6 | 180 | 3.2 | 9.7 | 0.00 | 0.00 | 0.00 | 83 | 1020.8 |
| 20260506122526 | 6 | 226 | 4.8 | 11.3 | 0.00 | 0.00 | 0.00 | 83 | 1020.8 |
| 20260506122032 | 6 | 207 | 4.8 | 12.9 | 0.00 | 0.00 | 0.00 | 83 | 1020.8 |
| 20260506121542 | 6 | 192 | 8.0 | 12.9 | 0.00 | 0.00 | 0.00 | 83 | 1020.7 |
| 20260506121027 | 6 | 211 | 6.4 | 14.5 | 0.00 | 0.00 | 0.00 | 82 | 1020.6 |
| 20260506120530 | 6 | 189 | 6.4 | 16.1 | 0.00 | 0.00 | 0.00 | 82 | 1020.5 |
| 20260506120039 | 6 | 195 | 9.7 | 16.1 | 0.00 | 0.00 | 0.00 | 83 | 1020.5 |
| 20260506115526 | 6 | 201 | 9.7 | 19.3 | 0.00 | 0.00 | 0.00 | 82 | 1020.5 |
| 20260506115027 | 6 | 178 | 8.0 | 19.3 | 0.00 | 0.00 | 0.00 | 81 | 1020.5 |
| 20260506114543 | 6 | 201 | 6.4 | 14.5 | 0.00 | 0.00 | 0.00 | 81 | 1020.4 |
| 20260506114026 | 6 | 191 | 4.8 | 14.5 | 0.00 | 0.00 | 0.00 | 81 | 1020.4 |
| 20260506113525 | 6 | 196 | 6.4 | 14.5 | 0.00 | 0.00 | 0.00 | 81 | 1020.3 |
| 20260506113038 | 6 | 198 | 6.4 | 12.9 | 0.00 | 0.00 | 0.00 | 80 | 1020.3 |
| 20260506112526 | 7 | 178 | 4.8 | 12.9 | 0.00 | 0.00 | 0.00 | 81 | 1020.3 |
| 20260506112026 | 7 | 209 | 4.8 | 12.9 | 0.00 | 0.00 | 0.00 | 80 | 1020.3 |
| 20260506111536 | 7 | 207 | 3.2 | 11.3 | 0.00 | 0.00 | 0.00 | 80 | 1020.2 |
| 20260506111026 | 7 | 205 | 4.8 | 12.9 | 0.00 | 0.00 | 0.00 | 80 | 1020.2 |
| 20260506110528 | 7 | 194 | 6.4 | 12.9 | 0.00 | 0.00 | 0.00 | 80 | 1020.2 |
| 20260506110042 | 7 | 192 | 3.2 | 11.3 | 0.00 | 0.00 | 0.00 | 80 | 1020.2 |
| 20260506105527 | 7 | 208 | 4.8 | 12.9 | 0.00 | 0.00 | 0.00 | 80 | 1020.2 |
| 20260506105027 | 7 | 167 | 4.8 | 12.9 | 0.00 | 0.00 | 0.00 | 80 | 1020.2 |
| 20260506104540 | 7 | 190 | 6.4 | 12.9 | 0.00 | 0.00 | 0.00 | 80 | 1020.2 |
| 20260506104027 | 7 | 213 | 6.4 | 12.9 | 0.00 | 0.00 | 0.00 | 80 | 1020.2 |
| 20260506103525 | 7 | 165 | 4.8 | 11.3 | 0.00 | 0.00 | 0.00 | 80 | 1020.1 |
| 20260506103039 | 7 | 195 | 4.8 | 8.0 | 0.00 | 0.00 | 0.00 | 81 | 1020.1 |
| 20260506102529 | 7 | 0 | 3.2 | 8.0 | 0.00 | 0.00 | 0.00 | 80 | 1020.1 |
| 20260506102026 | 7 | 200 | 1.6 | 6.4 | 0.00 | 0.00 | 0.00 | 80 | 1020.1 |
| 20260506101537 | 7 | 194 | 3.2 | 8.0 | 0.00 | 0.00 | 0.00 | 81 | 1020.2 |
| 20260506101025 | 7 | 199 | 3.2 | 9.7 | 0.00 | 0.00 | 0.00 | 81 | 1020.1 |
| 20260506100526 | 7 | 178 | 3.2 | 9.7 | 0.00 | 0.00 | 0.00 | 81 | 1020.0 |
| 20260506100039 | 7 | 196 | 3.2 | 8.0 | 0.00 | 0.00 | 0.00 | 81 | 1020.0 |
| 20260506095528 | 7 | 200 | 3.2 | 8.0 | 0.00 | 0.00 | 0.00 | 82 | 1019.9 |
| 20260506095028 | 7 | 150 | 1.6 | 8.0 | 0.00 | 0.00 | 0.00 | 82 | 1019.9 |
| 20260506094543 | 7 | 0 | 1.6 | 9.7 | 0.00 | 0.00 | 0.00 | 81 | 1019.8 |
| 20260506094025 | 7 | 352 | 1.6 | 12.9 | 0.00 | 0.00 | 0.00 | 81 | 1019.9 |
| 20260506093527 | 7 | 188 | 4.8 | 12.9 | 0.00 | 0.00 | 0.00 | 81 | 1019.9 |
| 20260506093038 | 7 | 209 | 6.4 | 11.3 | 0.00 | 0.00 | 0.00 | 82 | 1019.8 |
| 20260506092529 | 7 | 173 | 6.4 | 11.3 | 0.00 | 0.00 | 0.00 | 82 | 1019.7 |
| 20260506092026 | 7 | 188 | 1.6 | 9.7 | 0.00 | 0.00 | 0.00 | 83 | 1019.8 |
| 20260506091537 | 6 | 0 | 3.2 | 8.0 | 0.00 | 0.00 | 0.00 | 83 | 1019.7 |
| 20260506091025 | 6 | 180 | 0.0 | 4.8 | 0.00 | 0.00 | 0.00 | 83 | 1019.7 |
| 20260506090527 | 6 | 0 | 0.0 | 4.8 | 0.00 | 0.00 | 0.00 | 83 | 1019.7 |
| 20260506090036 | 6 | 182 | 0.0 | 6.4 | 0.00 | 0.00 | 0.00 | 83 | 1019.8 |
| 20260506085526 | 6 | 0 | 1.6 | 6.4 | 0.00 | 0.00 | 0.00 | 83 | 1019.7 |
| 20260506085025 | 6 | 201 | 4.8 | 6.4 | 0.00 | 0.00 | 0.00 | 84 | 1019.7 |
| 20260506084542 | 6 | 188 | 1.6 | 6.4 | 0.00 | 0.00 | 0.00 | 84 | 1019.7 |
| 20260506084027 | 6 | 0 | 0.0 | 4.8 | 0.00 | 0.00 | 0.00 | 85 | 1019.7 |
| 20260506083525 | 7 | 0 | 0.0 | 6.4 | 0.00 | 0.00 | 0.00 | 85 | 1019.6 |
| 20260506083042 | 6 | 0 | 1.6 | 6.4 | 0.00 | 0.00 | 0.00 | 85 | 1019.6 |
| 20260506082526 | 6 | 175 | 0.0 | 6.4 | 0.00 | 0.00 | 0.00 | 85 | 1019.5 |
| 20260506082026 | 6 | 203 | 1.6 | 6.4 | 0.00 | 0.00 | 0.00 | 86 | 1019.6 |
| 20260506081543 | 7 | 0 | 1.6 | 8.0 | 0.00 | 0.00 | 0.00 | 85 | 1019.6 |
| 20260506081027 | 6 | 190 | 3.2 | 8.0 | 0.00 | 0.00 | 0.00 | 85 | 1019.5 |
| 20260506080526 | 6 | 186 | 1.6 | 8.0 | 0.00 | 0.00 | 0.00 | 86 | 1019.5 |
| 20260506073526 | 7 | 196 | 1.6 | 4.8 | 0.00 | 0.00 | 0.00 | 86 | 1019.5 |
| 20260506073045 | 7 | 186 | 0.0 | 4.8 | 0.00 | 0.00 | 0.00 | 86 | 1019.4 |
| 20260506072528 | 7 | 0 | 0.0 | 3.2 | 0.00 | 0.00 | 0.00 | 86 | 1019.5 |
| 20260506072026 | 7 | 0 | 0.0 | 3.2 | 0.00 | 0.00 | 0.00 | 86 | 1019.5 |
| 20260506071552 | 7 | 0 | 0.0 | 3.2 | 0.00 | 0.00 | 0.00 | 87 | 1019.5 |
| 20260506071028 | 7 | 0 | 0.0 | 4.8 | 0.00 | 0.00 | 0.00 | 87 | 1019.4 |
| 20260506070526 | 7 | 0 | 0.0 | 6.4 | 0.00 | 0.00 | 0.00 | 86 | 1019.5 |
| 20260506062029 | 7 | 0 | 0.0 | 4.8 | 0.00 | 0.00 | 0.00 | 86 | 1019.4 |
| 20260506061538 | 7 | 0 | 0.0 | 4.8 | 0.00 | 0.00 | 0.00 | 86 | 1019.4 |
| 20260506061026 | 7 | 0 | 0.0 | 4.8 | 0.00 | 0.00 | 0.00 | 86 | 1019.4 |
| 20260506060527 | 7 | 182 | 1.6 | 6.4 | 0.00 | 0.00 | 0.00 | 86 | 1019.4 |
| 20260506051024 | 7 | 171 | 9.7 | 16.1 | 0.00 | 0.00 | 0.00 | 80 | 1019.3 |
| 20260506050526 | 8 | 194 | 8.0 | 14.5 | 0.00 | 0.00 | 0.00 | 80 | 1019.3 |
| 20260506045027 | 8 | 209 | 6.4 | 17.7 | 0.00 | 0.00 | 0.00 | 79 | 1019.1 |
| 20260506044544 | 8 | 173 | 8.0 | 17.7 | 0.00 | 0.00 | 0.00 | 79 | 1019.1 |
| 20260506044025 | 8 | 190 | 8.0 | 16.1 | 0.00 | 0.00 | 0.00 | 79 | 1019.0 |
| 20260506043525 | 8 | 210 | 8.0 | 16.1 | 0.00 | 0.00 | 0.00 | 79 | 1018.9 |
| 20260506043038 | 8 | 189 | 8.0 | 16.1 | 0.00 | 0.00 | 0.00 | 79 | 1018.9 |
| 20260506042528 | 8 | 203 | 9.7 | 16.1 | 0.00 | 0.00 | 0.00 | 78 | 1018.8 |
| 20260506042027 | 8 | 0 | 6.4 | 16.1 | 0.00 | 0.00 | 0.00 | 78 | 1018.7 |
| 20260506041541 | 8 | 182 | 8.0 | 14.5 | 0.00 | 0.00 | 0.00 | 79 | 1018.6 |
| 20260506041024 | 8 | 171 | 8.0 | 14.5 | 0.00 | 0.00 | 0.00 | 77 | 1018.5 |
| 20260506040525 | 8 | 183 | 8.0 | 16.1 | 0.00 | 0.00 | 0.00 | 78 | 1018.4 |
| 20260506040039 | 8 | 169 | 8.0 | 19.3 | 0.00 | 0.00 | 0.00 | 78 | 1018.3 |
| 20260506035528 | 8 | 177 | 9.7 | 19.3 | 0.00 | 0.00 | 0.00 | 77 | 1018.2 |
| 20260506035025 | 8 | 186 | 8.0 | 17.7 | 0.00 | 0.00 | 0.00 | 76 | 1018.1 |
| 20260506034545 | 8 | 184 | 8.0 | 16.1 | 0.00 | 0.00 | 0.00 | 76 | 1018.1 |
| 20260506034026 | 8 | 176 | 9.7 | 16.1 | 0.00 | 0.00 | 0.00 | 76 | 1018.0 |
| 20260506033527 | 8 | 190 | 8.0 | 17.7 | 0.00 | 0.00 | 0.00 | 76 | 1018.0 |
| 20260506033042 | 8 | 185 | 11.3 | 19.3 | 0.00 | 0.00 | 0.00 | 77 | 1017.9 |
| 20260506032525 | 8 | 186 | 11.3 | 19.3 | 0.00 | 0.00 | 0.00 | 76 | 1018.0 |
| 20260506032031 | 8 | 205 | 11.3 | 17.7 | 0.00 | 0.00 | 0.00 | 76 | 1018.0 |
| 20260506031538 | 8 | 192 | 9.7 | 17.7 | 0.00 | 0.00 | 0.00 | 75 | 1017.9 |
| 20260506031025 | 8 | 198 | 11.3 | 22.5 | 0.00 | 0.00 | 0.00 | 76 | 1017.9 |
| 20260506030529 | 8 | 200 | 11.3 | 22.5 | 0.00 | 0.00 | 0.00 | 75 | 1018.0 |
| 20260506030056 | 9 | 180 | 11.3 | 19.3 | 0.00 | 0.00 | 0.00 | 75 | 1018.0 |
| 20260506025525 | 9 | 173 | 9.7 | 19.3 | 0.00 | 0.00 | 0.00 | 73 | 1017.9 |
| 20260506025029 | 9 | 184 | 9.7 | 19.3 | 0.00 | 0.00 | 0.00 | 73 | 1017.8 |
| 20260506024551 | 9 | 192 | 8.0 | 22.5 | 0.00 | 0.00 | 0.00 | 74 | 1017.8 |
| 20260506024026 | 9 | 202 | 12.9 | 22.5 | 0.00 | 0.00 | 0.00 | 73 | 1017.8 |
| 20260506023525 | 9 | 205 | 9.7 | 20.9 | 0.00 | 0.00 | 0.00 | 75 | 1017.7 |
| 20260506023043 | 9 | 170 | 11.3 | 20.9 | 0.00 | 0.00 | 0.00 | 74 | 1017.7 |
| 20260506022525 | 9 | 188 | 11.3 | 24.1 | 0.00 | 0.00 | 0.00 | 74 | 1017.6 |
| 20260506022025 | 9 | 179 | 14.5 | 24.1 | 0.00 | 0.00 | 0.00 | 74 | 1017.6 |
| 20260506021541 | 9 | 190 | 12.9 | 22.5 | 0.00 | 0.00 | 0.00 | 74 | 1017.6 |
| 20260506021027 | 9 | 209 | 16.1 | 24.1 | 0.00 | 0.00 | 0.00 | 74 | 1017.5 |
| 20260506020529 | 9 | 205 | 11.3 | 25.7 | 0.00 | 0.00 | 0.00 | 73 | 1017.7 |
| 20260506020039 | 9 | 180 | 12.9 | 27.4 | 0.00 | 0.00 | 0.00 | 73 | 1017.7 |
| 20260506015527 | 9 | 190 | 16.1 | 27.4 | 0.00 | 0.00 | 0.00 | 73 | 1017.6 |
| 20260506015027 | 9 | 184 | 14.5 | 24.1 | 0.00 | 0.00 | 0.00 | 73 | 1017.4 |
| 20260506014556 | 9 | 196 | 16.1 | 24.1 | 0.00 | 0.00 | 0.00 | 73 | 1017.4 |
| 20260506014026 | 9 | 200 | 12.9 | 20.9 | 0.00 | 0.00 | 0.00 | 73 | 1017.4 |
| 20260506013527 | 9 | 184 | 14.5 | 25.7 | 0.00 | 0.00 | 0.00 | 73 | 1017.4 |
| 20260506013036 | 9 | 183 | 14.5 | 25.7 | 0.00 | 0.00 | 0.00 | 72 | 1017.5 |
| 20260506012525 | 9 | 178 | 12.9 | 20.9 | 0.00 | 0.00 | 0.00 | 72 | 1017.5 |
| 20260506012027 | 9 | 191 | 11.3 | 20.9 | 0.00 | 0.00 | 0.00 | 74 | 1017.4 |
| 20260506011544 | 9 | 195 | 12.9 | 22.5 | 0.00 | 0.00 | 0.00 | 73 | 1017.4 |
| 20260506011028 | 9 | 190 | 16.1 | 27.4 | 0.00 | 0.00 | 0.00 | 74 | 1017.4 |
| 20260506010526 | 9 | 174 | 16.1 | 27.4 | 0.00 | 0.00 | 0.00 | 73 | 1017.4 |
| 20260506010049 | 10 | 176 | 14.5 | 24.1 | 0.00 | 0.00 | 0.00 | 72 | 1017.4 |
| 20260506005525 | 10 | 184 | 14.5 | 24.1 | 0.00 | 0.00 | 0.00 | 72 | 1017.3 |
| 20260506005027 | 10 | 184 | 16.1 | 25.7 | 0.00 | 0.00 | 0.00 | 72 | 1017.4 |